Location: Huntsville
(41.2590°N, 111.7678°W)
Time: 07:41:56
(UTC+00:00)

Vanguard 2 - All Passes

Search period start: 25 September 2022 00:00
Search period end: 05 October 2022 00:00
Orbit: 552 x 2935 km, 32.9° (Epoch: 24 September)

Date Brightness Start Highest point End Pass type
(mag) Time Alt. Az. Time Alt. Az. Time Alt. Az.
25 Sep - 00:56:37 10° WSW 01:14:00 65° S 01:29:24 10° ESE daylight
25 Sep - 03:08:56 10° W 03:25:36 51° SSW 03:38:06 10° SE visible
25 Sep - 05:23:36 10° W 05:34:48 24° SW 05:43:19 10° S visible
25 Sep - 18:56:32 10° SE 18:59:42 11° SE 19:03:03 10° ESE daylight
25 Sep - 20:55:48 10° SSW 21:08:07 36° SE 21:23:15 10° E daylight
25 Sep - 23:03:20 10° WSW 23:19:01 59° SSE 23:35:57 10° E daylight
26 Sep - 01:13:55 10° W 01:31:17 63° S 01:46:32 10° ESE visible
26 Sep - 03:26:28 10° W 03:42:33 45° SSW 03:54:46 10° SE visible
26 Sep - 05:42:22 10° W 05:51:16 18° SW 05:58:29 10° S visible
26 Sep - 19:08:57 10° SSE 19:16:05 17° SE 19:24:33 10° E daylight
26 Sep - 21:12:05 10° SW 21:24:56 43° SSE 21:40:57 10° E daylight
26 Sep - 23:20:21 10° WSW 23:36:15 63° S 23:53:16 10° E daylight
27 Sep - 01:31:14 10° W 01:48:32 61° SSW 02:03:36 10° ESE visible
27 Sep - 03:44:07 10° W 03:59:23 39° SSW 04:11:10 10° SSE visible
27 Sep - 06:02:36 10° WSW 06:07:39 12° SW 06:12:09 10° SSW visible
27 Sep - 19:23:43 10° S 19:32:33 23° SE 19:43:40 10° E daylight
27 Sep - 21:28:38 10° SW 21:41:51 49° SSE 21:58:31 10° E daylight
27 Sep - 23:37:29 10° WSW 23:53:32 64° S 00:10:34 10° E daylight
28 Sep - 01:48:37 10° W 02:05:43 57° SSW 02:20:32 10° SE visible
28 Sep - 04:01:58 10° W 04:16:06 32° SW 04:27:17 10° SSE visible
28 Sep - 19:39:17 10° SSW 19:49:05 29° SE 20:02:00 10° E daylight
28 Sep - 21:45:23 10° SW 21:58:53 55° SSE 22:15:59 10° E daylight
28 Sep - 23:54:41 10° WSW 00:10:50 65° S 00:27:49 10° ESE daylight
29 Sep - 02:06:03 10° W 02:22:48 51° SSW 02:37:20 10° SE visible
29 Sep - 04:20:09 10° W 04:32:43 26° SW 04:42:59 10° S visible
29 Sep - 19:55:20 10° SSW 20:05:44 36° SE 20:19:57 10° E daylight
29 Sep - 22:02:17 10° WSW 22:16:01 59° SSE 22:33:25 10° E daylight
30 Sep - 00:11:56 10° W 00:28:08 63° S 00:44:58 10° ESE daylight
30 Sep - 02:23:34 10° W 02:39:47 45° SSW 02:53:55 10° SE visible
30 Sep - 04:38:56 10° W 04:49:14 19° SW 04:58:02 10° S visible
30 Sep - 18:09:03 10° SSE 18:14:25 15° SE 18:20:52 10° ESE daylight
30 Sep - 20:11:42 10° SW 20:22:30 42° SSE 20:37:40 10° E daylight
30 Sep - 22:19:18 10° WSW 22:33:14 62° S 22:50:47 10° E daylight
01 Oct - 00:29:13 10° W 00:45:23 60° SSW 01:02:01 10° ESE daylight
01 Oct - 02:41:13 10° W 02:56:40 39° SSW 03:10:14 10° SSE visible
01 Oct - 04:59:03 10° WSW 05:05:42 14° SW 05:11:44 10° SSW visible
01 Oct - 18:23:48 10° S 18:30:50 21° SE 18:40:04 10° E daylight
01 Oct - 20:28:17 10° SW 20:39:24 48° SSE 20:55:15 10° E daylight
01 Oct - 22:36:24 10° WSW 22:50:30 64° S 23:08:07 10° ESE daylight
02 Oct - 00:46:34 10° W 01:02:35 55° SSW 01:18:57 10° SE daylight
02 Oct - 02:59:04 10° W 03:13:27 32° SW 03:26:15 10° SSE visible
02 Oct - 18:39:26 10° SSW 18:47:21 27° SE 18:58:25 10° E daylight
02 Oct - 20:45:04 10° SW 20:56:24 54° SSE 21:12:45 10° E daylight
02 Oct - 22:53:34 10° W 23:07:46 63° S 23:25:22 10° ESE daylight
03 Oct - 01:03:58 10° W 01:19:42 50° SSW 01:35:41 10° SE visible
03 Oct - 03:17:17 10° W 03:30:09 26° SW 03:41:48 10° S visible
03 Oct - 18:55:33 10° SSW 19:03:59 33° SE 19:16:21 10° E daylight
03 Oct - 21:01:59 10° WSW 21:13:31 58° SSE 21:30:11 10° E daylight
03 Oct - 23:10:47 10° W 23:25:03 61° S 23:42:33 10° ESE daylight
04 Oct - 01:21:28 10° W 01:36:44 44° SSW 01:52:13 10° SE visible
04 Oct - 03:36:09 10° W 03:46:47 19° SW 03:56:38 10° S visible
04 Oct - 17:10:07 10° SSE 17:13:19 12° SE 17:16:59 10° ESE daylight
04 Oct - 19:11:58 10° SW 19:20:45 40° SSE 19:34:04 10° E daylight
04 Oct - 21:19:00 10° WSW 21:30:41 61° S 21:47:35 10° E daylight
